Location: Unspecified
(0.0000°N, 0.0000°E)
Time: 18:37:19
(UTC+00:00)

Vanguard 1 Rocket - Visible Passes

Search period start: 18 April 2019 00:00
Search period end: 28 April 2019 00:00
Orbit: 651 x 4225 km, 34.3° (Epoch: 17 April)

Date Brightness Start Highest point End Pass type
(mag) Time Alt. Az. Time Alt. Az. Time Alt. Az.
18 Apr 10.2 04:05:19 11° SSW 04:13:25 30° SE 04:27:36 10° E visible
18 Apr 8.7 19:25:48 10° WNW 19:34:38 40° SW 19:37:55 22° SSE visible
19 Apr 10.4 02:58:22 12° SSE 03:01:21 13° SE 03:06:35 10° ESE visible
19 Apr 9.9 05:17:20 10° SW 05:28:15 65° SE 05:49:27 10° ENE visible
19 Apr 8.4 18:10:43 10° NW 18:23:31 82° SW 18:30:01 10° SE visible
20 Apr 9.9 04:08:44 16° SSW 04:16:00 38° SE 04:31:37 10° ENE visible
20 Apr 9.3 19:29:32 10° W 19:37:18 27° SW 19:41:16 15° S visible
21 Apr 10.1 03:01:47 17° SSE 03:04:16 19° SE 03:12:24 10° E visible
21 Apr 9.7 05:20:09 10° SW 05:30:51 80° SE 05:52:10 10° NE visible
21 Apr 8.9 18:13:34 10° WNW 18:26:19 59° SW 18:32:55 10° SE visible
22 Apr 9.6 04:12:09 22° SSW 04:18:32 50° SE 04:35:06 10° ENE visible
22 Apr 9.7 19:33:53 10° W 19:40:01 19° SW 19:44:22 10° S visible
23 Apr 9.8 03:05:13 24° SSE 03:06:59 25° SE 03:17:09 10° E visible
23 Apr 9.5 05:23:10 10° WSW 05:33:35 83° NW 05:54:35 10° NE visible
23 Apr 9.5 18:16:47 10° WNW 18:28:58 43° SW 18:35:37 10° SSE visible
24 Apr 9.2 04:15:35 28° SSW 04:21:06 65° SE 04:38:10 10° ENE visible
24 Apr 10.0 19:39:23 10° WSW 19:42:48 12° SW 19:45:38 10° SSW visible
25 Apr 9.4 03:08:38 34° SSE 03:09:35 34° SE 03:21:13 10° ENE visible
25 Apr 9.6 05:26:24 10° WSW 05:36:33 66° NNW 05:56:47 10° NE visible
25 Apr 9.7 18:20:27 10° WNW 18:31:33 31° SW 18:38:05 10° SSE visible
26 Apr 10.6 02:01:41 12° ESE 02:01:41 12° ESE 02:02:58 10° ESE visible
26 Apr 8.9 04:18:59 34° SW 04:23:49 84° SE 04:40:52 10° NE visible
27 Apr 8.9 03:12:01 47° SE 03:12:11 47° SE 03:24:43 10° ENE visible
27 Apr 9.8 05:29:52 10° WSW 05:39:47 52° NNW 05:58:50 10° NE visible
27 Apr 9.9 18:24:42 10° W 18:34:11 23° SW 18:40:18 10° S visible
